Location: Dackenheim
(49.5215°N, 8.1854°E)
Time: 10:31:55
(UTC+00:00)

NOSS 3-1 (A) - Pass Details

Date: 19 May 2025
Orbit: 639 x 1568 km, 63.4° (Epoch: 20 June)

Event Time Altitude Azimuth Distance (km) Brightness Sun altitude
Exits shadow 20:50:24 16° 165° (SSE) 1,772 4.3 -12.6°
Maximum altitude 20:53:21 29° 115° (ESE) 1,347 3.8 -12.9°
Drops below altitude 10° 20:58:05 10° 57° (ENE) 2,478 5.6 -13.4°
Sets 21:01:05 0° 47° (NE) 3,572 6.6 -13.6°
